Погода в Кело

Чад     9°15′45″N   15°50′44″E
темп.,
°C
ветер,
м/с
пор.,
м/с
влажн.,
%
обл.,
%
осадки,
мм/ч
давл.,
гПа
погр.,
м
9 августа, вт
вт901:00+23юз249271 0.0 101182
04:00+22ююз2492100 0.0 101184
07:00+23зюз238962 0.1 1013128
10:00+28з126750 0.5 1013757
13:00+30з226135 1.3 10101332
16:00+27ююз3479100 1.1 1008113
19:00+26юз2280100 1.1 101028
22:00+25юз2482100 0.0 101177
10 августа, ср
ср1001:00+24зюз378568 0.0 1011176
04:00+23з2489100 0.2 1010116
07:00+23зюз2893100 1.9 1012288
10:00+27з347597 0.0 1012499
13:00+30зсз226460 1.3 10091002
16:00+29с1172100 5.5 1008285
19:00+24юз2289100 9.6 100939
22:00+23зюз249458 1.3 101180
11 августа, чт
чт1101:00+22сз3797100 5.1 1010253
04:00+22сз3796100 1.6 1010263
07:00+22з369694 2.3 1012284
10:00+26з217894 0.0 1012722
13:00+24з2387100 0.2 1011125
16:00+24з3687100 0.1 1009450
19:00+23юз3693100 0.1 1009344
22:00+22юз2590100 0.0 1011244
12 августа, пт
пт1201:00+21з2692100 0.0 1011262
04:00+21з2793100 0.0 1011313
07:00+21ююз2593100 0.0 1012247
10:00+22зюз2690100 0.1 1013308
13:00+26з4675100 0.1 1011693
16:00+24сз2589100 0.4 1009169
19:00+22ссз2593100 0.9 1011142
22:00+22ссз1189100 0.0 101220
13 августа, сб
сб1301:00+22сз1189100 0.1 101124
04:00+21ссз1397100 2.9 101297
07:00+21сз1299100 9.1 1013133
10:00+22з2293100 1.6 1014330
13:00+22з489688 2.8 1012541
16:00+25зсз457885 0.1 1009882
19:00+23з378795 0.2 1011254
22:00+21зюз389595 0.0 1012348